sim
Sign-in with your pilot id or email,
or register
Callsign
Passwort

Schedule Details

Flight Number: RYR9026
Departure: Girona Costa Brava Airport (LEGE) at 11:00
Arrival: Bratislava M. R. Stefanik Airport (LZIB) at 13:15
Route: Ryanair Passenger Schedule. Enter filed route here before submitting Pirep.

Weather Information
Getting current METAR information for LEGE 310630Z 18003KT 140V220 9999 FEW040 16/14 Q1014
Getting current METAR information for LZIB 310630Z 33005KT 300V010 9999 -RA FEW025 BKN056 BKN075 12/06 Q1015 NOSIG

Schedule Frequency

Route Map